Location: Baird Park
(34.0870°N, 118.1812°W)
Time: 14:13:43
(UTC+00:00)

Daily predictions for brighter satellites

Satellite Brightness Start Highest point End
(mag) Time Altitude Azimuth Time Altitude Azimuth Time Altitude Azimuth
NOSS 3-4 (A) 3.9 12:21:03 51° NNE 12:21:03 51° NNE 12:25:35 10° NNE
NOSS 3-4 (C) 3.9 12:21:06 52° NNE 12:21:06 52° NNE 12:25:41 10° NNE
CENTAUR R/B 4.0 12:21:47 19° N 12:27:31 46° NE 12:35:48 10° SE
Cosmos 1680 Rocket 3.8 12:30:03 63° ENE 12:30:03 63° ENE 12:34:47 10° NNE
NOSS 3-2 (A) 4.1 12:27:08 45° NNW 12:30:02 81° ENE 12:38:37 10° SSE
Cosmos 2154 Rocket 3.8 12:36:22 77° SW 12:36:22 77° SW 12:42:17 10° S
Cosmos 2322 Rocket 2.8 12:32:16 10° S 12:37:46 56° ESE 12:43:19 10° NNE
Cosmos 1295 Rocket 4.4 12:34:08 18° N 12:38:51 81° E 12:44:56 10° S
Cosmos 2263 Rocket 3.1 12:42:06 18° N 12:46:03 45° ENE 12:51:28 10° SE
Cosmos 2112 Rocket 3.9 12:46:07 42° SSW 12:48:00 87° ESE 12:53:22 10° NNE
BREEZE-M DEB (TANK) 3.5 12:46:30 47° WNW 12:48:46 72° SW 12:52:30 10° SE
STARLINK 1062 4.3 12:50:15 48° SE 12:50:31 49° SE 12:54:32 10° NE
Cosmos 1758 Rocket 3.8 12:51:38 61° SSE 12:51:38 61° SSE 12:55:19 10° S
ATLAS 2AS CENTAUR R/B 3.2 12:53:15 45° WNW 12:54:02 46° NW 13:01:42 10° NNE
STARLINK 1053 4.1 12:55:05 52° SSE 12:55:33 55° SE 12:59:36 10° NE
ALOS 2.7 12:51:51 10° NNE 12:56:29 63° E 13:01:05 10° S
Meteor 2-17 Rocket 4.3 12:53:31 24° NNW 12:57:18 70° W 13:03:17 10° S
Meteor 1-21 Rocket 4.2 12:56:21 27° NNW 12:59:37 70° W 13:05:30 10° S
STARLINK 1061 4.0 12:59:52 53° S 13:00:31 62° SE 13:04:36 10° NE
OAO 1 4.4 12:59:58 62° WNW 13:00:54 81° N 13:06:26 10° E
Cosmos 962 Rocket 4.4 12:55:12 10° N 13:01:32 80° W 13:07:52 10° S
Centaur D-1A AC-32 3.3 13:01:53 27° SSW 13:02:22 28° S 13:05:54 10° ESE
STARLINK 1067 3.8 13:04:38 52° SSW 13:05:27 70° SE 13:09:34 10° NE
USA 238 DEB 4.0 13:07:02 36° WNW 13:09:40 52° WSW 13:16:51 10° S
USA 238 4.0 13:07:05 36° WNW 13:09:46 53° WSW 13:16:58 10° S
STARLINK 1058 3.6 13:09:21 49° SSW 13:10:22 78° SE 13:14:31 10° NE
Genesis I 3.9 13:10:00 31° N 13:11:24 48° ENE 13:15:04 10° SE
Cosmos 1908 3.1 13:07:41 10° S 13:11:36 85° W 13:15:31 10° N
Cosmos 1825 Rocket 3.5 13:13:30 56° W 13:13:40 57° W 13:17:56 10° S
Cosmos 972 Rocket 4.1 13:12:18 29° NW 13:15:02 56° W 13:20:08 10° S
STARLINK 1043 3.5 13:14:10 45° SW 13:15:22 87° SE 13:19:31 10° NE
Cosmos 1328 3.8 13:13:42 16° N 13:16:52 78° E 13:20:48 10° S
RESURS DK-1 2.2 13:15:49 15° SSW 13:19:15 81° WNW 13:23:24 10° NNE
Cosmos 2058 Rocket 2.9 13:15:25 10° S 13:19:48 76° W 13:24:11 10° N
FENGYUN 3A 3.5 13:14:45 10° N 13:20:10 78° WNW 13:25:35 10° SSW
STARLINK 1065 3.5 13:18:55 41° SW 13:20:19 84° NW 13:24:28 10° NE
SL-16 R/B 2.3 13:16:41 21° SW 13:20:19 50° WNW 13:25:50 10° N
Abrixas rocket 2.1 13:20:49 64° NNE 13:20:51 64° NE 13:23:51 10° ESE
Okean O Rocket 2.2 13:17:20 10° NNE 13:21:43 58° E 13:26:03 10° S
Cosmos 2360 Rocket 2.5 13:17:22 10° S 13:22:59 68° ESE 13:28:37 10° NNE
Cosmos 2056 Rocket 4.4 13:19:50 10° N 13:25:09 52° ENE 13:30:23 10° SSE
STARLINK 1063 3.5 13:23:42 36° WSW 13:25:18 76° NW 13:29:27 10° NE
Cosmos 1726 Rocket 4.1 13:22:37 10° SSW 13:27:13 36° WNW 13:30:51 10° NNW
Lacrosse 5 2.6 13:28:03 31° WNW 13:28:45 32° NW 13:33:18 10° NNE
SL-8 Rocket 3.9 13:23:22 10° N 13:29:32 73° W 13:35:38 10° S
STARLINK 1064 3.5 13:28:25 32° WSW 13:30:14 68° NW 13:34:21 10° NE
Cosmos 2181 Rocket 4.1 13:25:18 10° SSW 13:31:16 50° W 13:37:22 10° N
COSMO-SKYMED 1 2.6 13:28:25 10° S 13:32:41 58° W 13:36:54 10° NNW
STARLINK 1041 3.6 13:33:14 28° WSW 13:35:15 61° NW 13:39:21 10° NE
SL-4 R/B 3.0 13:39:14 21° SW 13:39:15 21° SW 13:41:56 10° S
CZ-4B R/B 3.2 13:34:24 10° NNE 13:39:55 87° ESE 13:45:17 10° SSW
STARLINK 1038 3.7 13:38:01 25° WSW 13:40:13 55° NW 13:44:17 10° NE
ATLAS 2A CENTAUR R/B 3.3 13:39:16 10° SW 13:42:03 28° SSE 13:49:06 10° E
Milstar 3 Cent rocket 4.2 13:27:11 12° WSW 13:43:05 62° S 13:50:50 10° E
Cosmos 2237 4.1 13:38:05 10° SSW 13:43:48 82° WNW 13:49:32 10° NNE
Cosmos 1703 3.6 13:41:52 12° NNW 13:45:13 43° W 13:48:55 10° SSW
STARLINK 1046 3.8 13:42:50 22° WSW 13:45:14 49° NW 13:49:16 10° NE
Cosmos 158 Rocket 4.5 13:41:12 10° SW 13:45:32 32° WNW 13:49:57 10° N
STARLINK 1039 4.0 13:47:35 19° WSW 13:50:11 44° NW 13:54:10 10° NNE
SMAP 4.1 13:47:54 10° NNE 13:52:26 50° E 13:56:56 10° S
COSMOS 2428 4.4 13:48:40 10° S 13:53:50 36° ESE 13:59:01 10° NE
STARLINK 1045 4.1 13:52:21 17° WSW 13:55:11 40° NW 13:59:06 10° NNE
ADEOS Rocket 3.3 13:51:49 10° SSE 13:57:12 63° ENE 14:02:47 10° N
ATLAS 3B R/B 2.7 13:52:24 10° NNW 13:59:12 77° WSW 14:06:13 10° SSE
Nadezhda 3 Rocket 4.1 13:54:09 10° S 14:00:17 85° E 14:06:29 10° N
STARLINK 1050 4.3 13:57:24 15° W 14:00:19 35° NW 14:04:08 10° NNE
Cosmos 1340 Rocket 3.1 13:57:11 10° S 14:01:04 68° E 14:04:57 10° NNE
USA 116 4.3 13:57:45 10° S 14:02:17 48° W 14:06:22 10° NNW
Cosmos 2084 Rocket 4.2 13:58:45 10° SSW 14:03:00 58° ESE 14:07:19 10° NE
STARLINK 1055 4.4 14:02:09 13° W 14:05:17 32° NW 14:09:02 10° NNE
USA 215 3.8 14:01:01 10° ESE 14:07:21 56° NE 14:13:42 10° NW
BREEZE-M DEB (TANK) 4.0 14:06:44 10° WSW 14:09:54 61° NNW 14:18:24 10° NE
Cosmos 2058 3.8 14:12:32 10° N 14:16:40 53° E 14:20:46 10° SSE
Hubble Space Telescope 4.0 14:16:50 10° SSE 14:16:58 10° SSE 14:17:07 10° SSE
Cosmos-2242 4.5 14:13:16 10° SSE 14:17:25 43° E 14:21:35 10° NNE
CENTAUR R/B 3.7 14:10:30 10° NW 14:18:20 43° WSW 14:26:24 10° S
Meteor 2-1 Rocket 4.4 14:13:24 10° S 14:19:03 81° E 14:24:38 10° N
Alouette 2 Rocket 3.7 14:15:43 10° SSW 14:20:31 50° W 14:24:11 10° N
Cosmos 2322 Rocket 3.5 14:18:22 10° W 14:22:10 18° WNW 14:26:00 10° NNW
Cosmos 1812 Rocket 3.8 14:23:25 10° SSW 14:27:37 46° W 14:31:51 10° N
Cosmos 2263 Rocket 3.5 14:25:33 10° NW 14:29:33 20° W 14:33:35 10° SW
Cosmos 1300 3.7 14:27:13 10° SW 14:30:26 26° WNW 14:33:40 10° NNW
